Weather History for KGWB - January, 2014

Change the Weather History Date:

Thursday, January 16, 2014

  Actual Average (KFWA) Record (KFWA)
Temperature  
Mean Temperature 24 °F 25 °F  
Max Temperature 30 °F 32 °F 56 °F (1949)
Min Temperature 19 °F 17 °F -19 °F (1972)
Degree Days  
Heating Degree Days 40 40  
Month to date heating degree days 639  
Since 1 July heating degree days 2967  
Cooling Degree Days 0 0  
Month to date cooling degree days 0  
Year to date cooling degree days 0  
Moisture  
Dew Point 19 °F    
Average Humidity 79    
Maximum Humidity 93    
Minimum Humidity 64    
Precipitation  
Precipitation 0.02 in 0.07 in 1.08 in (1952)
Month to date precipitation 1.24  
Year to date precipitation 1.24  
Snow  
Snow 0.00 in 0.40 in 3.60 in (1994)
Month to date snowfall 5.1  
Since 1 July snowfall 15.7  
Snow Depth -    
Sea Level Pressure  
Sea Level Pressure 29.74 in    
Wind  
Wind Speed 9 mph (SSW)    
Max Wind Speed 15 mph    
Max Gust Speed 25 mph    
Visibility 6 miles    
Events Snow    
T = Trace of Precipitation, MM = Missing Value Source: NWS Daily Summary

Daily Weather History Graph

Daily Weather History Graph

Search for Another Location

Airport or City:

Trip Planner

Search our weather history database for the weather conditions in past years. The results will help you decide how hot, cold, wet, or windy it might be!

Date:

Astronomy

Jan. 16, 2014 Rise Set
Actual Time 8:03 AM EST 5:37 PM EST
Civil Twilight 7:32 AM EST 6:07 PM EST
Nautical Twilight 6:58 AM EST 6:41 PM EST
Astronomical Twilight 6:25 AM EST 7:14 PM EST
Moon 6:29 PM EST (1/16) 7:55 AM EST (1/16)
Length of Visible Light 10h 34m
Length of Day
9h 33m
Full, 100% of the Moon is Illuminated
Jan 16
Full
Jan 24
Last Quarter
Jan 30
New
Feb 6
First Quarter
Feb 14
Full

Hourly Weather History & Observations

Time (EST) Temp. Windchill Dew Point Humidity Pressure Visibility Wind Dir Wind Speed Gust Speed Precip Events Conditions
12:15 AM 21.2 °F 11.7 °F 12.2 °F 68% 29.96 in 10.0 mi SSW 8.1 mph - N/A Snow Light Snow
12:35 AM 19.4 °F 9.5 °F 12.2 °F 74% 29.95 in 10.0 mi SSW 8.1 mph 16.1 mph N/A Snow Light Snow
12:55 AM 19.4 °F 8.6 °F 12.2 °F 74% 29.95 in 10.0 mi SSW 9.2 mph - N/A   Overcast
1:15 AM 19.4 °F 10.4 °F 12.2 °F 74% 29.93 in 10.0 mi SSW 6.9 mph 16.1 mph N/A   Overcast
1:35 AM 19.4 °F 10.4 °F 12.2 °F 74% 29.95 in 10.0 mi SW 6.9 mph - N/A   Overcast
1:55 AM 19.4 °F 7.2 °F 12.2 °F 74% 29.93 in 10.0 mi SW 11.5 mph 16.1 mph N/A   Overcast
2:15 AM 19.4 °F 8.6 °F 12.2 °F 74% 29.94 in 10.0 mi SSW 9.2 mph 16.1 mph N/A   Overcast
2:35 AM 19.4 °F 10.4 °F 12.2 °F 74% 29.94 in 10.0 mi SW 6.9 mph - N/A   Overcast
2:55 AM 19.4 °F 9.5 °F 12.2 °F 74% 29.94 in 10.0 mi SSW 8.1 mph 16.1 mph N/A   Overcast
3:15 AM 19.4 °F 10.4 °F 12.2 °F 74% 29.92 in 10.0 mi SSW 6.9 mph - N/A   Mostly Cloudy
3:35 AM 19.4 °F 12.8 °F 12.2 °F 74% 29.92 in 10.0 mi SSW 4.6 mph - N/A   Scattered Clouds
3:55 AM 19.4 °F 10.4 °F 12.2 °F 74% 29.90 in 10.0 mi South 6.9 mph - N/A   Mostly Cloudy
4:15 AM 19.4 °F 11.5 °F 12.2 °F 74% 29.87 in 10.0 mi South 5.8 mph - N/A   Overcast
4:35 AM 19.4 °F 9.5 °F 12.2 °F 74% 29.85 in 10.0 mi South 8.1 mph - N/A   Overcast
4:55 AM 19.4 °F 8.6 °F 12.2 °F 74% 29.85 in 10.0 mi South 9.2 mph - N/A   Overcast
5:15 AM 19.4 °F 9.5 °F 12.2 °F 74% 29.84 in 10.0 mi South 8.1 mph - N/A   Overcast
5:35 AM 19.4 °F 11.5 °F 12.2 °F 74% 29.83 in 10.0 mi South 5.8 mph 16.1 mph N/A   Overcast
6:15 AM 21.2 °F 12.6 °F 14.0 °F 74% 29.81 in 10.0 mi South 6.9 mph - N/A   Overcast
6:35 AM 21.2 °F 11.7 °F 14.0 °F 74% 29.81 in 10.0 mi South 8.1 mph - N/A   Overcast
6:55 AM 21.2 °F 11.7 °F 14.0 °F 74% 29.80 in 10.0 mi South 8.1 mph - N/A   Overcast
7:15 AM 21.2 °F 10.9 °F 14.0 °F 74% 29.78 in 10.0 mi South 9.2 mph - N/A Snow Light Snow
7:35 AM 23.0 °F 14.7 °F 14.0 °F 68% 29.78 in 10.0 mi South 6.9 mph - N/A   Overcast
7:55 AM 23.0 °F 13.9 °F 14.0 °F 68% 29.77 in 10.0 mi South 8.1 mph 16.1 mph N/A   Overcast
8:15 AM 23.0 °F 12.4 °F 14.0 °F 68% 29.76 in 10.0 mi South 10.4 mph - N/A   Overcast
8:35 AM 23.0 °F 13.1 °F 15.8 °F 74% 29.76 in 4.0 mi South 9.2 mph 17.3 mph N/A Snow Light Snow
8:55 AM 23.0 °F 13.9 °F 17.6 °F 80% 29.76 in 0.8 mi South 8.1 mph - N/A Snow Light Snow
9:15 AM 23.0 °F 13.9 °F 19.4 °F 86% 29.76 in 0.8 mi South 8.1 mph - N/A Snow Light Snow
9:35 AM 23.0 °F 13.1 °F 19.4 °F 86% 29.76 in 0.8 mi South 9.2 mph - N/A Snow Light Snow
9:55 AM 23.0 °F 13.1 °F 19.4 °F 86% 29.75 in 0.8 mi South 9.2 mph - N/A Snow Light Snow
10:15 AM 23.0 °F 13.9 °F 19.4 °F 86% 29.74 in 0.8 mi South 8.1 mph - N/A Snow Light Snow
10:35 AM 23.0 °F 12.4 °F 21.2 °F 93% 29.74 in 0.5 mi South 10.4 mph 16.1 mph N/A Snow Light Snow
10:55 AM 24.8 °F 17.9 °F 21.2 °F 86% 29.73 in 0.5 mi South 5.8 mph - 0.01 in Snow Light Snow
11:15 AM 24.8 °F 14.0 °F 21.2 °F 86% 29.72 in 0.8 mi South 11.5 mph 18.4 mph N/A Snow Light Snow
11:35 AM 26.6 °F 16.2 °F 21.2 °F 80% 29.72 in 0.8 mi South 11.5 mph 17.3 mph N/A Snow Light Snow
11:55 AM 26.6 °F 16.2 °F 21.2 °F 80% 29.71 in 1.2 mi South 11.5 mph 17.3 mph N/A Snow Light Snow
12:15 PM 26.6 °F 17.5 °F 21.2 °F 80% 29.69 in 0.8 mi South 9.2 mph 21.9 mph N/A Snow Light Snow
12:35 PM 26.6 °F 15.7 °F 21.2 °F 80% 29.68 in 0.8 mi SSW 12.7 mph 17.3 mph N/A Snow Light Snow
12:55 PM 26.6 °F 17.5 °F 21.2 °F 80% 29.67 in 0.5 mi SSW 9.2 mph - 0.01 in Snow Snow
1:15 PM 26.6 °F 16.8 °F 21.2 °F 80% 29.66 in 0.8 mi South 10.4 mph 18.4 mph N/A Snow Light Snow
1:35 PM 26.6 °F 17.5 °F 21.2 °F 80% 29.65 in 0.8 mi South 9.2 mph 17.3 mph N/A Snow Light Snow
1:55 PM 26.6 °F 17.5 °F 23.0 °F 86% 29.64 in 0.8 mi South 9.2 mph - N/A Snow Light Snow
2:15 PM 28.4 °F 19.1 °F 23.0 °F 80% 29.63 in 1.0 mi South 10.4 mph 16.1 mph N/A Snow Light Snow
2:35 PM 28.4 °F 19.7 °F 23.0 °F 80% 29.63 in 3.0 mi South 9.2 mph 20.7 mph N/A Snow Light Snow
2:55 PM 28.4 °F 19.1 °F 23.0 °F 80% 29.62 in 10.0 mi South 10.4 mph 17.3 mph N/A   Overcast
3:35 PM 28.4 °F 19.7 °F 23.0 °F 80% 29.62 in 10.0 mi South 9.2 mph 16.1 mph N/A   Overcast
3:55 PM 28.4 °F 18.5 °F 23.0 °F 80% 29.63 in 10.0 mi SSW 11.5 mph 16.1 mph N/A   Overcast
4:15 PM 28.4 °F 18.0 °F 23.0 °F 80% 29.63 in 10.0 mi South 12.7 mph 18.4 mph N/A   Overcast
4:35 PM 28.4 °F 20.4 °F 23.0 °F 80% 29.63 in 10.0 mi South 8.1 mph - N/A   Overcast
4:55 PM 28.4 °F 19.7 °F 23.0 °F 80% 29.63 in 10.0 mi South 9.2 mph 16.1 mph N/A   Overcast
5:15 PM 28.4 °F 20.4 °F 23.0 °F 80% 29.63 in 7.0 mi South 8.1 mph - N/A Snow Light Snow
5:35 PM 28.4 °F 20.4 °F 23.0 °F 80% 29.63 in 5.0 mi South 8.1 mph - N/A Snow Light Snow
5:55 PM 28.4 °F 20.4 °F 23.0 °F 80% 29.64 in 3.0 mi South 8.1 mph - N/A Snow Light Snow
6:15 PM 28.4 °F 19.7 °F 23.0 °F 80% 29.64 in 5.0 mi South 9.2 mph - N/A Snow Light Snow
6:35 PM 28.4 °F 19.1 °F 23.0 °F 80% 29.64 in 10.0 mi South 10.4 mph 17.3 mph N/A   Overcast
6:55 PM 28.4 °F 19.1 °F 23.0 °F 80% 29.64 in 7.0 mi SSW 10.4 mph 18.4 mph N/A Snow Light Snow
7:15 PM 28.4 °F 19.7 °F 24.8 °F 86% 29.64 in 3.0 mi South 9.2 mph 17.3 mph N/A Snow Light Snow
7:35 PM 28.4 °F 20.4 °F 24.8 °F 86% 29.63 in 10.0 mi South 8.1 mph 18.4 mph N/A   Overcast
7:55 PM 28.4 °F 18.5 °F 23.0 °F 80% 29.64 in 7.0 mi SSW 11.5 mph 17.3 mph N/A Snow Light Snow
8:15 PM 28.4 °F 20.4 °F 24.8 °F 86% 29.64 in 3.0 mi SSW 8.1 mph - N/A Snow Light Snow
8:35 PM 28.4 °F 18.5 °F 24.8 °F 86% 29.63 in 2.5 mi SSW 11.5 mph 16.1 mph N/A Snow Light Snow
8:55 PM 28.4 °F 19.7 °F 26.6 °F 93% 29.63 in 2.0 mi SSW 9.2 mph 16.1 mph N/A Snow Light Snow
9:15 PM 28.4 °F 19.7 °F 26.6 °F 93% 29.64 in 2.5 mi SSW 9.2 mph - N/A Snow Light Snow
9:35 PM 30.2 °F 20.8 °F 26.6 °F 86% 29.64 in 3.0 mi SSW 11.5 mph 17.3 mph N/A Snow Light Snow
9:55 PM 30.2 °F 20.8 °F 26.6 °F 86% 29.64 in 2.5 mi SSW 11.5 mph 17.3 mph N/A Snow Light Snow
10:15 PM 30.2 °F 20.8 °F 26.6 °F 86% 29.65 in 2.5 mi SSW 11.5 mph - N/A Snow Light Snow
10:35 PM 30.2 °F 23.4 °F 26.6 °F 86% 29.65 in 5.0 mi SSW 6.9 mph - N/A Snow Light Snow
10:55 PM 30.2 °F 23.4 °F 26.6 °F 86% 29.65 in 10.0 mi SW 6.9 mph - N/A   Overcast
11:15 PM 30.2 °F 19.3 °F 24.8 °F 80% 29.65 in 10.0 mi WSW 15.0 mph 20.7 mph N/A   Overcast
11:35 PM 30.2 °F 19.8 °F 19.4 °F 64% 29.65 in 10.0 mi WSW 13.8 mph 25.3 mph N/A   Overcast
11:55 PM 30.2 °F 21.9 °F 19.4 °F 64% 29.65 in 10.0 mi WSW 9.2 mph 20.7 mph N/A   Overcast